Airfield :
LOGIN :

Register | Disclaimer

   EN    FR    IT 

 










Legend :    VFR   Marginal VFR   IFR   Intensive IFR   Very Intensive IFR
Visi :
Ceiling :
>= 8 km
>= 3000ft
5 to 8 km
1000 to 3000 ft
1500m to 5 km
500 to 1000 ft
800 to 1500m
200 to 500 ft
< 800m
< 200 ft
Symbols :   Thunderstorms  Fog  Heavy snow  Heavy precipitations  Wind > 20 kt
SIGMETs :     Misc.  Thunderstorms  Icing  Turbulence  Mountain Waves  Volcanic Ashes







- Airport Elevation : 25 ft
- IATA code : QCY


EGXC - RAF Coningsby

CURRENT METAR :
  • 200250Z 19007KT 8000 -RA FEW012 SCT020 BKN030 05/04 Q1016 WHT

EXPIRED METARs :
  • 200150Z 20007KT 9999 -RA BKN018 05/03 Q1018 WHT
  • 200050Z 18006KT 9999 BKN026 05/03 Q1018 BLU

TAF TAF EGXC
Valid from the 20 at 03:00 until the 20 at 21:00 UTC


200126Z 2003/2021 19008KT 9999 BKN040
TEMPO 2003/2012 4000 RA BKN008
PROB30
TEMPO 2004/2009 3000 RADZ BKN005
BECMG 2008/2011 24015G25KT
PROB30
TEMPO 2012/2017 7000 SHRA BKN020TCU
BECMG 2015/2018 26012KT
PROB30 2017/2021 SCT015
No reported NOTAMs for that airfield.



MET'MAP, your aeronautical weather chart ! - Copyright ORBIFLY December 2007 - Disclaimer

ORBIFLY MET'MAP TEAM :

Programming & Development : Alexandra Zaïnal
Concept & Development : Baudouin d'Aumeries
Co-Development & Prog : Marc-Olivier Méhu
Technical & hardware support : Manuel Goepfert

Contact : metmap@orbifly.com




SOURCES & CREDITS :

   NOAA